Content
SEND FEEDBACK

Daily
Averages
Monthly
Summary
United States of America

AUBURN, NEW YORK


Home > North America > United States > New York
Elevation: 72 feet     Latitude: 42 55N     Longitude: 076 32W

WEATHER
 
SELECT A DAY
Number of Records: 223,832;   Date Range: 1/1/95 - 7/26/14
 
SHARE

PRINT THIS DATA

[ ← Previous Day ]
WEATHER ALMANAC - FEBRUARY 18, 2013
[ Next Day → ]
[ °C ]   °F
Weather ElementAverageHighLow
Temperature17.7 °F26.1 °F (4:54 pm)12 °F (1:54 am)
Dewpoint7.4 °F10 °F (1:54 pm)3.2 °F (3:16 am)
Humidity64.7 %79 % (1:12 am)49 % (4:54 pm)
Barometer30.20 in30.29 in (8:53 am)30.04 in (10:54 pm)
Wind Speed8 mph17.3 mph (1:16 am)
Wind Gust21.9 mph (1:16 am)
Weather ElementAverage
Visibility8.3 mi
Wind DirectionSSW (211.7 °)

Weather ElementTotal
Precipitation0.01 in
Heating Degree Days46 (Base 65)
Averaged from 36 records on February 18, 2013
WEATHER CONDITIONS BREAKOUT
WIND DIRECTION BREAKOUT
WEATHER BY HOUR - FEBRUARY 18, 2013
[ °C ]   °F
Local TimeTemperatureDewpointHumidityBarometerVisibilityWind DirectionWind SpeedGust SpeedPrecipitationEventsConditions
12:54 AM12.9 °F7.0 °F77 %30.14 in2.5 miWNW (300°)13.8 mph0.00 inSnowLight Snow
1:12 AM12.2 °F6.8 °F79 %30.13 in1.8 miNW (310°)13.8 mph0.00 inSnowLight Snow
1:16 AM12.2 °F6.8 °F79 %30.13 in2.0 miWNW (290°)17.3 mph21.9 mph0.00 inSnowLight Snow
1:54 AM12.0 °F5.0 °F73 %30.16 in3.0 miWNW (290°)12.7 mph21.9 mph0.01 inSnowLight Snow
2:54 AM12.0 °F3.9 °F70 %30.18 in9.0 miWNW (300°)10.4 mph0.00 inSnowLight Snow
3:16 AM12.2 °F3.2 °F67 %30.17 in7.0 miWNW (290°)12.7 mph0.00 inSnowLight Snow
3:54 AM12.0 °F3.9 °F70 %30.20 in8.0 miWNW (290°)10.4 mph0.00 inSnowLight Snow
4:54 AM12.9 °F5.0 °F71 %30.23 in7.0 miWNW (300°)9.2 mph0.00 inSnowLight Snow
5:54 AM12.9 °F5.0 °F71 %30.25 in9.0 miNW (310°)8.1 mph0.00 inSnowLight Snow
6:54 AM12.9 °F3.9 °F67 %30.26 in9.0 miNW (310°)6.9 mph0.00 inSnowLight Snow
7:28 AM12.2 °F3.2 °F67 %30.26 in10.0 miWNW (290°)5.8 mph0.00 inScattered Clouds
7:54 AM12.9 °F3.9 °F67 %30.28 in10.0 miWest (270°)5.8 mph0.00 inScattered Clouds
8:53 AM14.0 °F7.0 °F74 %30.29 in10.0 miWest (260°)8.1 mphScattered Clouds
9:38 AM15.8 °F8.6 °F73 %30.27 in10.0 miWest (260°)9.2 mph0.00 inSnowLight Snow
9:54 AM17.1 °F9.0 °F71 %30.29 in4.0 miWSW (240°)9.2 mph0.00 inSnowLight Snow
9:58 AM15.8 °F8.6 °F73 %30.27 in2.5 miSW (230°)8.1 mph0.00 inSnowLight Snow
10:24 AM17.6 °F8.6 °F68 %30.27 in4.0 miWSW (250°)10.4 mph0.00 inSnowLight Snow
10:49 AM17.6 °F8.6 °F68 %30.27 in10.0 miSW (230°)5.8 mph0.00 inScattered Clouds
10:54 AM18.0 °F8.1 °F65 %30.28 in10.0 miWSW (240°)6.9 mph0.00 inScattered Clouds
11:13 AM19.4 °F8.6 °F63 %30.27 in10.0 miSW (230°)4.6 mph0.00 inSnowLight Snow
11:21 AM19.4 °F8.6 °F63 %30.26 in9.0 miWSW (250°)5.8 mph0.00 inScattered Clouds
11:50 AM19.4 °F8.6 °F63 %30.26 in10.0 miVariable3.5 mph0.00 inMostly Cloudy
11:54 AM19.0 °F8.1 °F62 %30.27 in10.0 miWest (260°)6.9 mph0.00 inMostly Cloudy
12:54 PM21.0 °F9.0 °F60 %30.25 in10.0 miWSW (250°)6.9 mphMostly Cloudy
1:08 PM21.2 °F8.6 °F58 %30.23 in10.0 miSW (230°)5.8 mphScattered Clouds
1:54 PM24.1 °F10.0 °F55 %30.24 in10.0 miWNW (290°)8.1 mphScattered Clouds
2:54 PM23.0 °F10.0 °F58 %30.22 in10.0 miSSW (200°)3.5 mphScattered Clouds
3:54 PM24.1 °F9.0 °F53 %30.19 in10.0 miESE (120°)4.6 mphScattered Clouds
4:54 PM26.1 °F9.0 °F49 %30.19 in10.0 miCalmScattered Clouds
5:54 PM23.0 °F8.1 °F53 %30.16 in10.0 miENE (70°)6.9 mphScattered Clouds
6:54 PM21.9 °F9.0 °F58 %30.15 in10.0 miEast (80°)5.8 mphMostly Cloudy
7:54 PM21.9 °F9.0 °F58 %30.11 in10.0 miEast (90°)11.5 mphOvercast
8:54 PM21.9 °F8.1 °F55 %30.08 in10.0 miENE (70°)10.4 mphOvercast
9:54 PM21.0 °F8.1 °F57 %30.05 in10.0 miEast (80°)9.2 mphOvercast
10:54 PM21.9 °F8.1 °F55 %30.04 in10.0 miENE (70°)6.9 mphOvercast
11:54 PM21.9 °F9.0 °F58 %30.04 in10.0 miENE (70°)4.6 mphOvercast
Hourly data recorded from KSYR, located miles away from Auburn, New York







STORIES FROM OUR PARTNERS